[[{"header":{"parameterUnit":"m.s-1","parameterCategory":1,"la1":30.2991,"la2":30.254,"lo1":-89.0895,"lo2":-89.0444,"dy":0.0017,"dx":0.0017,"nx":28,"ny":28,"refTime":"2023-08-04T09:00:00:Z","depth":0,"parameterNumber":2,"parameterNumberName":"U-component_of_WINDS"},"data":[0,0,0,0,0,0,0,0,0,0,0,0,0,0,0,0,0,0,0,0,0,0,0,0,0,0,0,0,0,0,0,0,0,0,0,0,0,0,0,0,0,0,0,0,0,0,0,0,0,0,0,0,0,0,0,0,0,0,1.1568,1.1568,0,1.164,1.164,1.1641,1.1639,1.1638,1.1637,1.1636,1.1714,1.1717,1.172,0,0,0,0,0,0,0,0,0,0,0,0,0,1.1433,1.1436,1.1568,1.1568,1.1569,1.1639,1.164,1.1641,1.1639,1.1638,1.1637,1.1636,1.1713,1.1716,1.172,0,0,0,0,0,0,0,0,0,0,0,0,0,1.1497,1.1437,1.1567,1.1577,1.1578,1.1639,1.164,1.1642,1.1639,1.1638,1.1636,1.1635,1.1712,1.1716,1.1721,1.1779,0,0,1.1734,1.1736,0,0,0,0,0,0,0,0,1.1494,1.1502,1.1574,1.1576,1.1578,1.1629,1.1622,1.1688,1.164,1.1616,1.1636,1.1634,1.1687,1.1694,1.171,1.1782,1.1786,1.1735,1.1738,1.1739,1.1741,0,0,0,0,0,0,0,1.1489,1.1499,1.1596,1.1575,1.1578,1.1579,1.1586,1.1634,1.1659,1.1618,1.1618,1.1627,1.1688,1.1706,1.1712,1.1787,1.1735,1.1739,1.1741,1.1743,1.1913,1.1915,0,0,0,0,0,0,1.1482,1.1495,1.1594,1.1598,1.1531,1.1582,1.1591,1.1614,1.1659,1.1664,1.1628,1.1626,1.1699,1.1707,1.1715,1.1788,1.1739,1.1744,1.1746,1.1911,1.1913,1.1915,0,0,0,0,0,0,1.1479,1.1491,1.1591,1.1547,1.156,1.1586,1.1613,1.1616,1.1634,1.1666,1.1671,1.1642,1.1698,1.1709,1.1763,1.1791,1.1746,1.175,1.1909,1.1912,1.1914,1.1933,0,0,0,0,0,0,1.1475,1.149,1.1511,1.1547,1.1562,1.1637,1.1614,1.1619,1.1642,1.164,1.168,1.1685,1.1698,1.1756,1.1768,1.1796,1.1753,1.1907,1.191,1.1913,1.193,1.1936,1.1941,0,0,0,0,0,1.1471,1.1514,1.1512,1.1524,1.1589,1.1638,1.1647,1.1659,1.1644,1.1666,1.1687,1.1684,1.1785,1.1762,1.1775,1.1805,1.1905,1.1909,1.1913,1.1928,1.1935,1.1941,0,0,0,0,0,0,1.1481,1.1519,1.1517,1.1573,1.1602,1.1637,1.1666,1.1666,1.1701,1.1698,1.1713,1.1722,1.1777,1.1796,1.177,1.1865,1.1844,1.185,1.1851,1.1858,1.1863,1.1858,1.1757,0,0,0,0,0,1.1489,1.1525,1.1556,1.1603,1.1617,1.1639,1.1661,1.1668,1.17,1.1712,1.1737,1.1769,1.1808,1.1834,1.1871,1.1933,1.1943,1.196,1.1965,1.197,1.1976,1.2013,1.2021,1.1928,1.1928,1.1928,0,0,1.1508,1.1533,1.1554,1.1605,1.1629,1.1667,1.165,1.169,1.172,1.1719,1.1772,1.1791,1.1828,1.1887,1.1914,1.1905,1.2004,1.1975,1.1978,1.1982,1.2018,1.2026,1.2034,1.1931,1.1931,1.193,0,0,1.1562,1.1583,1.1625,1.1649,1.1684,1.1699,1.1709,1.1745,1.1757,1.181,1.1811,1.1847,1.1914,1.1941,1.1963,1.2028,1.2028,1.204,1.207,1.2105,1.2113,1.2119,1.2145,1.2154,1.2046,1.2046,1.2046,0,1.1581,1.1637,1.1647,1.1689,1.1712,1.1712,1.1756,1.1779,1.1826,1.1843,1.1831,1.1916,1.194,1.2007,1.2023,1.204,1.2054,1.2037,1.211,1.2117,1.2124,1.2149,1.2158,1.2047,1.2047,1.2047,1.2047,0,1.166,1.1699,1.1729,1.1773,1.18,1.1843,1.1861,1.1887,1.1892,1.1909,1.1964,1.1994,1.2039,1.2054,1.206,1.2123,1.2116,1.2107,1.2086,1.2134,1.2158,1.2167,1.2049,1.2049,1.2049,1.2048,0,0,1.1723,1.1772,1.1783,1.1805,1.1844,1.1876,1.1919,1.1962,1.1985,1.2018,1.2056,1.2113,1.2106,1.2131,1.2139,1.217,1.2224,1.2158,1.2159,1.2171,1.2298,1.2306,1.2316,1.2223,1.2225,1.2226,1.2296,0,1.1782,1.1858,1.1869,1.1937,1.1975,1.1976,1.2015,1.2044,1.2061,1.2097,1.2116,1.2157,1.2142,1.2158,1.2188,1.221,1.225,1.2205,1.2262,1.2263,1.2254,1.2328,1.2337,1.2401,1.2305,1.2306,1.2307,0,1.1862,1.1896,1.1968,1.2004,1.2021,1.2055,1.2096,1.2129,1.2164,1.2174,1.2203,1.2208,1.2255,1.2231,1.2299,1.2268,1.2292,1.2306,1.2309,1.2317,1.229,1.234,1.2421,1.2432,1.2322,1.232,1.2319,0,1.1904,1.1968,1.202,1.2037,1.208,1.2105,1.2124,1.2157,1.2182,1.2219,1.2236,1.2278,1.2301,1.2334,1.2351,1.2331,1.2418,1.2395,1.243,1.243,1.245,1.2449,1.2539,1.2461,1.2461,1.2461,1.2461,0,1.1971,1.2016,1.2039,1.2071,1.2122,1.2135,1.2185,1.2204,1.2233,1.2271,1.2274,1.2309,1.2328,1.2367,1.238,1.2436,1.2446,1.2457,1.2461,1.2458,1.2457,1.2475,1.2472,1.2464,1.2463,1.2463,1.2462,0,1.2027,1.2044,1.2101,1.2137,1.2147,1.2183,1.2215,1.2248,1.2264,1.2311,1.2323,1.235,1.2395,1.2415,1.2471,1.2481,1.2545,1.2544,1.2533,1.2535,1.257,1.2567,1.2676,1.2692,1.2602,1.2603,1.2604,0,1.207,1.2104,1.2144,1.2169,1.2189,1.2228,1.2254,1.2269,1.2296,1.2339,1.2367,1.2412,1.245,1.2524,1.2549,1.2593,1.2595,1.263,1.2601,1.2599,1.2598,1.2597,1.2602,1.2636,1.2637,1.2637,1.2638,0,1.2145,1.2152,1.2189,1.223,1.2261,1.2293,1.2326,1.2346,1.2366,1.2397,1.2443,1.2472,1.253,1.2577,1.2622,1.2644,1.2646,1.2646,1.2657,1.2656,1.265,1.2657,1.255,1.2644,1.2644,1.2643,1.2643,1.2643,1.2198,1.2229,1.2262,1.2304,1.2329,1.236,1.2393,1.2413,1.2451,1.2499,1.2505,1.2556,1.2592,1.2653,1.2676,1.2718,1.2709,1.2724,1.2729,1.2733,1.2736,1.2641,1.2726,1.2725,1.2725,1.2725,1.2725,0,1.2275,1.2297,1.2335,1.2379,1.2413,1.2409,1.2445,1.2474,1.2518,1.255,1.2587,1.2642,1.2687,1.2716,1.2762,1.279,1.2792,1.2801,1.2801,1.2807,1.274,1.2727,1.2799,1.2799,1.2799,1.2799,1.2799,1.2799,1.2319,1.2373,1.2384,1.2452,1.2473,1.2522,1.2543,1.2572,1.2598,1.2659,1.2696,1.2714,1.2746,1.2794,1.2836,1.2844,1.2862,1.2873,1.288,1.2818,1.2811,1.2804,1.2792,1.2876,1.2876,1.2944,1.2944,1.2945]},{"header":{"parameterUnit":"m.s-1","parameterCategory":1,"la1":30.2991,"la2":30.254,"lo1":-89.0895,"lo2":-89.0444,"dy":0.0017,"dx":0.0017,"nx":28,"ny":28,"refTime":"2023-08-04T09:00:00:Z","depth":0,"parameterNumber":3,"parameterNumberName":"V-component_of_WINDS"},"data":[0,0,0,0,0,0,0,0,0,0,0,0,0,0,0,0,0,0,0,0,0,0,0,0,0,0,0,0,0,0,0,0,0,0,0,0,0,0,0,0,0,0,0,0,0,0,0,0,0,0,0,0,0,0,0,0,0,0,1.3382,1.3383,0,1.3489,1.349,1.3491,1.3471,1.3469,1.3467,1.3465,1.3574,1.3579,1.3583,0,0,0,0,0,0,0,0,0,0,0,0,0,1.3156,1.3161,1.3381,1.3383,1.3384,1.3489,1.349,1.3491,1.3471,1.3469,1.3467,1.3464,1.3572,1.3578,1.3584,0,0,0,0,0,0,0,0,0,0,0,0,0,1.3258,1.3162,1.3381,1.3387,1.3388,1.3488,1.349,1.3492,1.3472,1.3469,1.3466,1.3463,1.3571,1.3577,1.3584,1.3685,0,0,1.3606,1.3609,0,0,0,0,0,0,0,0,1.3252,1.3266,1.3385,1.3387,1.3388,1.3464,1.345,1.3557,1.3473,1.344,1.3465,1.3462,1.3539,1.3549,1.3575,1.369,1.3695,1.3606,1.3611,1.3614,1.3616,0,0,0,0,0,0,0,1.3245,1.3261,1.3424,1.3386,1.3389,1.3383,1.3394,1.347,1.3505,1.3443,1.3441,1.3454,1.354,1.3569,1.3578,1.3697,1.3606,1.3612,1.3617,1.362,1.3895,1.3898,0,0,0,0,0,0,1.3237,1.3256,1.342,1.3427,1.3312,1.3389,1.3402,1.3442,1.3504,1.351,1.3457,1.3453,1.3558,1.357,1.3581,1.37,1.3614,1.362,1.3624,1.3892,1.3896,1.3899,0,0,0,0,0,0,1.3232,1.3251,1.3416,1.3341,1.3362,1.3396,1.3442,1.3446,1.3474,1.3514,1.352,1.348,1.3556,1.3572,1.3659,1.3704,1.3623,1.363,1.3889,1.3893,1.3898,1.3941,0,0,0,0,0,0,1.3225,1.325,1.329,1.3342,1.3366,1.3493,1.3445,1.345,1.3487,1.3483,1.3538,1.3544,1.3555,1.3648,1.3666,1.3712,1.3635,1.3885,1.3891,1.3896,1.3936,1.3947,1.3956,0,0,0,0,0,1.3218,1.3298,1.3292,1.3312,1.3416,1.3496,1.3509,1.352,1.3491,1.353,1.3555,1.3542,1.3697,1.3657,1.3677,1.3726,1.3882,1.3889,1.3896,1.3931,1.3944,1.3956,0,0,0,0,0,0,1.325,1.3305,1.3299,1.3399,1.3443,1.3492,1.3542,1.3535,1.3588,1.3582,1.3594,1.3606,1.3694,1.3719,1.3674,1.3825,1.3785,1.3796,1.3805,1.3818,1.3828,1.3819,1.3641,0,0,0,0,0,1.3269,1.333,1.3374,1.3458,1.3481,1.3507,1.3543,1.3548,1.3593,1.3612,1.3643,1.3687,1.3745,1.3783,1.384,1.394,1.3949,1.3983,1.3993,1.4001,1.401,1.4061,1.4075,1.3923,1.3922,1.3922,0,0,1.3309,1.3346,1.3384,1.3466,1.35,1.3561,1.3523,1.359,1.3635,1.3622,1.3705,1.373,1.378,1.3873,1.3915,1.3896,1.4054,1.401,1.4016,1.4021,1.407,1.4084,1.4097,1.3927,1.3926,1.3926,0,0,1.3411,1.3447,1.3519,1.3554,1.3606,1.3623,1.3641,1.3691,1.3706,1.379,1.3781,1.3834,1.3935,1.3969,1.4,1.4113,1.4102,1.4131,1.4183,1.4233,1.4245,1.4255,1.4292,1.4306,1.414,1.414,1.4141,0,1.3454,1.3546,1.3557,1.3624,1.3659,1.365,1.3721,1.3755,1.3823,1.3846,1.3824,1.3948,1.3982,1.4081,1.4108,1.4135,1.4152,1.4124,1.4242,1.4253,1.4263,1.4298,1.4313,1.4143,1.4143,1.4143,1.4142,0,1.3593,1.3657,1.3709,1.3774,1.3815,1.3884,1.3904,1.3944,1.3945,1.3964,1.4048,1.4087,1.4149,1.4174,1.4176,1.4272,1.4258,1.424,1.4199,1.428,1.4314,1.4328,1.4148,1.4147,1.4146,1.4145,0,0,1.3719,1.3788,1.3807,1.3834,1.389,1.3939,1.4007,1.4068,1.41,1.4147,1.4202,1.4286,1.4268,1.4303,1.4309,1.4353,1.4435,1.4328,1.433,1.4344,1.454,1.4552,1.4567,1.4429,1.4432,1.4434,1.4534,0,1.3824,1.3944,1.3955,1.4061,1.4119,1.411,1.4168,1.4208,1.4227,1.4277,1.4298,1.4356,1.433,1.435,1.4393,1.4416,1.4474,1.441,1.4478,1.448,1.4463,1.4585,1.4599,1.4692,1.4548,1.455,1.4552,0,1.3963,1.4013,1.4125,1.4169,1.4194,1.4246,1.4301,1.435,1.4394,1.4404,1.4442,1.4442,1.4509,1.4467,1.4559,1.4514,1.4543,1.4558,1.4562,1.4567,1.4519,1.459,1.4722,1.4735,1.4573,1.4571,1.457,0,1.4039,1.4135,1.4213,1.4237,1.4293,1.4329,1.4354,1.4395,1.443,1.4477,1.4499,1.4554,1.4584,1.4626,1.4639,1.4608,1.4728,1.4689,1.4736,1.4736,1.476,1.4758,1.4895,1.4784,1.4784,1.4784,1.4783,0,1.4154,1.4222,1.4247,1.4295,1.437,1.4382,1.4455,1.4478,1.4514,1.4565,1.4561,1.4609,1.4625,1.4674,1.4685,1.4757,1.4771,1.4779,1.4781,1.4778,1.4777,1.4795,1.4788,1.4787,1.4786,1.4786,1.4785,0,1.4251,1.4271,1.4355,1.44,1.4413,1.4466,1.4504,1.4549,1.4567,1.463,1.4646,1.4674,1.4732,1.4749,1.482,1.4827,1.4909,1.4907,1.4894,1.4894,1.4939,1.4933,1.5091,1.5111,1.4989,1.499,1.4991,0,1.4321,1.4373,1.4423,1.4457,1.4482,1.4537,1.4572,1.4585,1.4621,1.4673,1.4711,1.4769,1.4815,1.4908,1.4933,1.4986,1.4982,1.5034,1.499,1.4984,1.4979,1.4974,1.4978,1.5041,1.5042,1.5043,1.5044,0,1.4443,1.4449,1.45,1.4553,1.4595,1.4637,1.4678,1.4706,1.4725,1.4765,1.4824,1.486,1.493,1.4986,1.5039,1.5063,1.5056,1.5058,1.5071,1.5067,1.5057,1.506,1.4913,1.5054,1.5053,1.5052,1.5052,1.5051,1.4526,1.457,1.4612,1.4667,1.4699,1.4737,1.478,1.4803,1.4853,1.4911,1.4916,1.4978,1.5018,1.5089,1.5115,1.5163,1.5148,1.5168,1.5173,1.5177,1.5178,1.5051,1.5173,1.5173,1.5173,1.5173,1.5173,0,1.4644,1.467,1.4721,1.4778,1.4821,1.4811,1.4855,1.4891,1.4947,1.4985,1.503,1.5096,1.5149,1.5179,1.5231,1.5264,1.5262,1.5277,1.5273,1.5278,1.5191,1.5173,1.5278,1.5278,1.5278,1.5278,1.5278,1.5278,1.471,1.4783,1.4795,1.4883,1.4908,1.4969,1.4995,1.5029,1.5059,1.5133,1.5177,1.5196,1.5229,1.5284,1.5332,1.5339,1.5357,1.5373,1.5378,1.5296,1.5285,1.5274,1.5257,1.5378,1.5378,1.5461,1.5462,1.5462]}]]